User: anonymous   Login
Location: Solon
(41.3849°N, 81.4081°W)
Time: 04:32:14
(UTC-04:00)
Language:

CZ-2C R/B - Orbit

View from above orbital plane
View from above orbital plane
View from above satellite
View from above satellite

Ground track
Ground track

The orbit data is extracted from the following two-line orbital elements,

1 28480U 04046B   16125.20100627  .00000027  00000-0  26084-4 0  9992
2 28480  98.1765 242.0220 0141857 352.1551  67.0432 14.25587433595968
Epoch (UTC): 04 May 2016 04:49:26
Eccentricity: 0.0141857
inclination: 98.1765°
perigee height: 704 km
apogee height: 908 km
right ascension of ascending node: 242.0220°
argument of perigee: 352.1551°
revolutions per day: 14.25587433
mean anomaly at epoch: 67.0432°
orbit number at epoch: 59596

The dashed part of the orbit path shows where the satellite is in the earth's shadow,  

DLR